Location: Ansan
(43.6898°N, 0.7731°E)
Time: 12:28:40
(UTC+00:00)

Cosmos 1634 Rocket - Pass Details

Date: 15 May 2026
Orbit: 960 x 990 km, 82.9° (Epoch: 8 June)

Event Time Altitude Azimuth Distance (km) Brightness Sun altitude
Exits shadow 22:22:33 53° 154° (SSE) 1,173 4.0 -23.9°
Maximum altitude 22:23:57 70° 94° (E) 1,025 3.9 -24.0°
Drops below altitude 10° 22:30:07 10° 12° (NNE) 2,716 7.1 -24.4°
Sets 22:32:39 0° 11° (N) 3,671 7.9 -24.6°
